Regional Weather Roundup
Issued by NWS

Home | Current Version | Previous Version | Text Only | Print | Product List | Glossary On
Versions: 1 2 3 4 5 6 7 8 9 10 11 12 13 14 15 16 17 18 19 20 21 22 23 24 25 26 27 28 29 30 31 32 33 34 35 36 37 38 39 40 41 42 43 44 45 46 47 48 49 50
000
ASUS45 KABQ 060310
RWRNM
NEW MEXICO REGIONAL WEATHER ROUNDUP
NATIONAL WEATHER SERVICE ALBUQUERQUE NM
900 PM MDT SUN JUL 05 2015

NOTE: "FAIR" MEANS FEW OR NO CLOUDS BELOW 12,000 FEET AGL WITH NO
       SIGNIFICANT WEATHER OR OBSTRUCTIONS TO VISION.

      THIS PRODUCT IS RELEASED AS TWO VERSIONS.  ONE VERSION NEAR
      THE TOP OF THE HOUR CONTAINING PRELIMINARY DATA FROM ALBUQUERQUE
      AND OTHER STATIONS.  A FINAL VERSION WITH ADDITIONAL DATA IS
      ISSUED ABOUT 10 MINUTES AFTER THE HOUR.

NMZ501-503-504-510>518-060400-
NORTHWEST PLATEAU/NORTHCENTRAL MOUNTAINS

CITY           SKY/WX    TMP DP  RH WIND       PRES   REMARKS
FARMINGTON     CLEAR     76  48  37 W6        30.06R
LOS ALAMOS     RAIN      60  58  91 W15       30.27R
SANTA FE       CLOUDY    67  55  65 NW13      30.17R
TAOS           CLOUDY    70  46  43 NW14G22   30.22R
ANGEL FIRE     MOCLDY    63  52  67 CALM      30.28R

$$
NMZ402-403-502-505>509-060400-
WESTCENTRAL MOUNTAINS/SOUTHWEST MOUNTAINS

CITY           SKY/WX    TMP DP  RH WIND       PRES   REMARKS
GALLUP         RAIN      62  58  86 SE5       30.27R FOG
GRANTS         CLOUDY    62  58  88 S5        30.25R
SILVER CITY      N/A     70  59  68 NW10      30.15S

$$
NMZ407-409-411-412-060400-
SOUTHERN DESERTS

CITY           SKY/WX    TMP DP  RH WIND       PRES   REMARKS
LORDSBURG      MOCLDY    72  59  64 W20       30.08S
DEMING         PTCLDY    78  59  51 NW12      30.05R
LAS CRUCES     PTCLDY    82  52  35 W12       30.04S
HOLLOMAN AFB   CLOUDY    77  64  64 N7        29.97F
ALAMOGORDO     MOCLDY    82  55  39 SE12G21   30.02R THUNDER
T OR C         CLOUDY    76  59  55 NW5       30.06R

$$
NMZ519>523-060400-
CENTRAL VALLEYS/CENTRAL HIGHLANDS

CITY           SKY/WX    TMP DP  RH WIND       PRES   REMARKS
ALBUQUERQUE    CLOUDY    71  57  61 W8        30.12R
DOUBLE EAGLE   MOCLDY    66  57  72 W16       30.14S
MORIARTY ARPT    N/A     70  52  52 W16       30.15R
CLINES CORNERS MOCLDY    67  52  58 W22       30.19R
BELEN          FAIR      71  56  60 W6        30.11S
SOCORRO        MOCLDY    74  57  55 NW15G22   30.07S

$$
NMZ524>526-539-540-060400-
SOUTHCENTRAL MOUNTAINS

CITY           SKY/WX    TMP DP  RH WIND       PRES   REMARKS
RUIDOSO        CLOUDY    66  59  77 W7        30.22S

$$
NMZ527>531-060400-
NORTHEAST HIGHLANDS/NORTHEAST PLAINS

CITY           SKY/WX    TMP DP  RH WIND       PRES   REMARKS
LAS VEGAS      MOCLDY    67  54  63 S13       30.14S
RATON          MOCLDY    73  55  53 S8        30.06R
CLAYTON        CLEAR     79  57  46 S13       29.97R

$$
NMZ532>537-060400-
EASTCENTRAL PLAINS

CITY           SKY/WX    TMP DP  RH WIND       PRES   REMARKS
TUCUMCARI      PTCLDY    85  56  37 S14       29.92R
CANNON AFB     MOCLDY    78  59  51 S9        29.99R
CLOVIS AIRPORT MOCLDY    79  57  47 S10         N/A

$$
NMZ028-029-538-060400-
SOUTHEAST PLAINS

CITY           SKY/WX    TMP DP  RH WIND       PRES   REMARKS
ROSWELL        MOCLDY    81  58  45 SW7       29.93R
ARTESIA        MOCLDY    84  61  45 SW9       29.94S
CARLSBAD       CLOUDY    87  61  41 S9        29.92R
HOBBS          MOCLDY    82  63  51 S14G21    29.98R


$$



USA.gov is the U.S. government's official web portal to all federal, state and local government web resources and services.